View from above orbital plane
|
View from above satellite
|
Ground track
|
The orbit data is extracted from the following two-line orbital elements,
1 25637U 99008D 21022.86472403 .00000059 00000-0 21715-4 0 9994
2 25637 96.4636 353.9489 0143819 54.5888 359.4054 14.46699659155543
Epoch (UTC): | 22 January 2021 20:45:12 |
Eccentricity: | 0.0143819 |
inclination: | 96.4636° |
perigee height: | 634 km |
apogee height: | 839 km |
right ascension of ascending node: | 353.9489° |
argument of perigee: | 54.5888° |
revolutions per day: | 14.46699659 |
mean anomaly at epoch: | 359.4054° |
orbit number at epoch: | 15554 |
The dashed part of the orbit path shows where the satellite is in the earth's shadow,
|
|